Powrót do katalogu

IRIDE-MS2-HEO-9

AktywnyNaukaSSO
NORAD 64585·PAYLOAD·🇮🇹 Italy

Wystrzelony Jun 23, 2025 z Vandenberg Space Force Base

Loading…

Następne Przeloty (najbliższe 24 godziny)

TLE

ŚwieżeSource: Space-Track

Epoka: Sep 14, 2026, 13:28 UTC

1 64585U 25135BK  26257.56164562  .00001146  00000-0  11874-3 0  9997
2 64585  97.7835  10.9382 0002304  83.5999 276.5482 14.91943316 67226

Śledź IRIDE-MS2-HEO-9 w czasie rzeczywistym z AllMySat

Download on the App Store